Location: Bogis-Bossey
(46.3500°N, 6.1667°E)
Time: 20:53:44
(UTC+00:00)

USA 229 - Visible Passes

Search period start: 30 January 2023 00:00
Search period end: 09 February 2023 00:00
Orbit: 924 x 1288 km, 63.4° (Epoch: 08 January)

Date Brightness Start Highest point End Pass type
(mag) Time Alt. Az. Time Alt. Az. Time Alt. Az.
30 Jan 4.4 04:48:25 10° S 04:54:20 48° ESE 05:00:43 10° NE visible
31 Jan 5.2 04:04:30 10° S 04:09:49 30° ESE 04:15:27 10° NE visible
31 Jan 3.6 05:54:02 10° SW 06:00:16 62° NW 06:07:04 10° NE visible
01 Feb 5.8 03:21:24 10° SSE 03:25:25 19° ESE 03:29:45 10° ENE visible
01 Feb 3.5 05:09:03 10° SW 05:15:20 88° NW 05:22:11 10° NE visible
02 Feb 6.1 02:40:07 10° ESE 02:41:10 10° ESE 02:42:13 10° E visible
02 Feb 3.9 04:26:43 24° SSW 04:30:33 63° ESE 04:37:12 10° NE visible
02 Feb 4.2 06:16:00 10° W 06:21:53 37° NW 06:28:18 10° NNE visible
03 Feb 4.6 03:44:11 33° SSE 03:45:56 40° ESE 03:52:04 10° NE visible
03 Feb 3.8 05:31:41 16° WSW 05:36:44 50° NW 05:43:25 10° NE visible
04 Feb 5.2 03:01:28 25° ESE 03:01:28 25° ESE 03:06:41 10° ENE visible
04 Feb 3.5 04:48:56 36° WSW 04:51:42 71° NW 04:58:33 10° NE visible
05 Feb 6.0 02:18:35 14° E 02:18:35 14° E 02:20:38 10° ENE visible
05 Feb 3.5 04:06:03 69° S 04:06:50 80° SE 04:13:38 10° NE visible
05 Feb 4.5 05:53:31 13° W 05:58:30 32° NNW 06:04:40 10° NNE visible
06 Feb 4.3 03:23:02 49° E 03:23:02 49° E 03:28:36 10° NE visible
06 Feb 4.1 05:10:29 28° W 05:13:14 42° NW 05:19:47 10° NNE visible
07 Feb 5.3 02:39:56 26° ENE 02:39:56 26° ENE 02:43:23 10° NE visible
07 Feb 3.6 04:27:23 54° WNW 04:28:07 58° NW 04:34:54 10° NE visible
07 Feb 5.0 06:15:27 10° WNW 06:20:37 23° NNW 06:26:08 10° NNE visible
08 Feb 6.1 01:56:44 13° ENE 01:56:44 13° ENE 01:57:48 10° ENE visible
08 Feb 3.7 03:44:11 66° NNE 03:44:11 66° NNE 03:50:01 10° NE visible
08 Feb 4.7 05:31:38 18° WNW 05:35:09 28° NNW 05:41:04 10° NNE visible
